| time (UTC) | temp F | wind direction | speed knots | gust knots | rain 1hr in | rain 24hr in | rain mn in | humidity % | barometer mb |
| 20260504224509 | 56 | 84 | 0.9 | 4.3 | 0.00 | 0.10 | 0.02 | 62 | 1017.4 |
| 20260504223005 | 55 | 37 | 0.0 | 1.7 | 0.00 | 0.10 | 0.02 | 70 | 1017.0 |
| 20260504221600 | 53 | 111 | 0.0 | 0.9 | 0.00 | 0.10 | 0.02 | 72 | 1016.8 |
| 20260504220115 | 51 | 30 | 0.0 | 1.7 | 0.00 | 0.10 | 0.02 | 75 | 1016.7 |
| 20260504214556 | 51 | 96 | 0.0 | 0.9 | 0.00 | 0.10 | 0.02 | 78 | 1016.6 |
| 20260504213056 | 49 | 37 | 0.0 | 1.7 | 0.00 | 0.10 | 0.02 | 82 | 1016.5 |
| 20260504211553 | 47 | 4 | 0.0 | 0.9 | 0.00 | 0.10 | 0.02 | 85 | 1016.4 |
| 20260504210046 | 45 | 37 | 0.0 | 1.7 | 0.00 | 0.10 | 0.02 | 87 | 1015.9 |
| 20260504204544 | 44 | 157 | 0.0 | 0.0 | 0.00 | 0.10 | 0.02 | 89 | 1015.7 |
| 20260504203042 | 0 | 0.0 | 0.0 | 0.00 | 0.10 | 0.02 | 1015.5 | ||
| 20260504201538 | 0 | 0.0 | 0.0 | 0.00 | 0.10 | 0.02 | 1015.3 | ||
| 20260504200040 | 0 | 0.0 | 0.0 | 0.00 | 0.10 | 0.02 | 1015.0 | ||
| 20260504194528 | 0 | 0.0 | 0.0 | 0.00 | 0.11 | 0.02 | 1014.6 | ||
| 20260504193023 | 0 | 0.0 | 0.0 | 0.01 | 0.11 | 0.02 | 1014.5 | ||
| 20260504191535 | 43 | 54 | 0.0 | 0.0 | 0.02 | 0.11 | 0.02 | 88 | 1014.4 |
| 20260504190018 | 44 | 47 | 0.0 | 3.5 | 0.02 | 0.11 | 0.02 | 87 | 1014.1 |
| 20260504184515 | 44 | 345 | 1.7 | 13.9 | 0.02 | 0.11 | 0.02 | 85 | 1013.5 |
| 20260504183111 | 46 | 214 | 0.0 | 9.6 | 0.01 | 0.10 | 0.02 | 80 | 1013.3 |
| 20260504181508 | 45 | 245 | 0.0 | 1.7 | 0.00 | 0.09 | 0.01 | 78 | 1012.9 |
| 20260504180005 | 45 | 138 | 0.0 | 3.5 | 0.00 | 0.09 | 0.01 | 78 | 1012.7 |
| 20260504174504 | 45 | 138 | 0.0 | 1.7 | 0.00 | 0.09 | 0.01 | 79 | 1012.4 |
| 20260504173003 | 45 | 248 | 0.0 | 6.1 | 0.00 | 0.09 | 0.01 | 80 | 1012.3 |
| 20260504171558 | 47 | 266 | 0.0 | 7.8 | 0.01 | 0.09 | 0.01 | 76 | 1011.8 |
| 20260504081520 | 61 | 269 | 7.0 | 20.9 | 0.03 | 0.04 | 0.04 | 57 | 996.9 |
| 20260504044553 | 65 | 297 | 5.2 | 13.9 | 0.00 | 0.01 | 0.01 | 59 | 997.5 |
| 20260504043052 | 66 | 360 | 1.7 | 9.6 | 0.00 | 0.01 | 0.01 | 58 | 996.9 |
| 20260504041547 | 67 | 199 | 1.7 | 6.1 | 0.00 | 0.01 | 0.01 | 59 | 997.2 |
| 20260504040100 | 68 | 269 | 2.6 | 8.7 | 0.00 | 0.01 | 0.01 | 60 | 997.1 |
| 20260504034556 | 68 | 283 | 2.6 | 8.7 | 0.00 | 0.01 | 0.01 | 61 | 996.9 |
| 20260504033107 | 67 | 286 | 4.3 | 10.4 | 0.00 | 0.01 | 0.01 | 60 | 997.2 |
| 20260504031542 | 66 | 318 | 1.7 | 14.8 | 0.00 | 0.01 | 0.01 | 64 | 997.2 |
| 20260504030045 | 66 | 268 | 5.2 | 20.0 | 0.00 | 0.01 | 0.01 | 61 | 996.9 |
| 20260504024543 | 68 | 221 | 0.0 | 4.3 | 0.00 | 0.01 | 0.01 | 62 | 996.9 |
| 20260504023055 | 68 | 50 | 0.9 | 5.2 | 0.00 | 0.01 | 0.01 | 60 | 996.6 |
| 20260504021535 | 68 | 238 | 3.5 | 11.3 | 0.00 | 0.01 | 0.01 | 60 | 996.5 |
| 20260504020037 | 68 | 236 | 2.6 | 9.6 | 0.00 | 0.01 | 0.01 | 60 | 996.9 |
| 20260504014540 | 69 | 283 | 5.2 | 12.2 | 0.00 | 0.01 | 0.01 | 58 | 996.9 |
| 20260504013027 | 69 | 251 | 3.5 | 16.5 | 0.00 | 0.01 | 0.01 | 59 | 996.8 |
| 20260504011526 | 69 | 254 | 6.1 | 13.9 | 0.00 | 0.01 | 0.01 | 57 | 997.1 |
| 20260504010023 | 67 | 319 | 7.0 | 20.9 | 0.00 | 0.01 | 0.01 | 60 | 997.3 |
| 20260504004520 | 66 | 259 | 7.8 | 20.9 | 0.00 | 0.01 | 0.01 | 62 | 997.3 |
| 20260504003028 | 66 | 293 | 4.3 | 16.5 | 0.00 | 0.01 | 0.01 | 63 | 997.2 |
| 20260504001519 | 65 | 212 | 4.3 | 17.4 | 0.00 | 0.01 | 0.01 | 66 | 997.0 |
| 20260504000019 | 65 | 249 | 8.7 | 20.0 | 0.00 | 0.01 | 0.01 | 64 | 996.8 |
| 20260503234530 | 65 | 231 | 7.8 | 14.8 | 0.00 | 0.01 | 0.01 | 65 | 996.5 |
| 20260503233017 | 65 | 297 | 5.2 | 18.2 | 0.00 | 0.01 | 0.01 | 68 | 996.6 |
| 20260503231515 | 66 | 207 | 3.5 | 30.4 | 0.00 | 0.01 | 0.01 | 67 | 996.4 |
| 20260503230015 | 66 | 288 | 5.2 | 19.1 | 0.00 | 0.01 | 0.01 | 66 | 996.6 |